Regional Weather Roundup
Issued by NWS Bismarck, ND

Home | Current Version | Previous Version | Text Only | Print | Product List | Glossary On
Versions: 1 2 3 4 5 6 7 8 9 10 11 12 13 14 15 16 17 18 19 20 21 22 23 24 25 26 27 28 29 30 31 32 33 34 35 36 37 38 39 40 41 42 43 44 45 46 47 48 49 50
000
ASUS43 KBIS 251910
RWRBIS

NWR BROADCAST TEXT
NATIONAL WEATHER SERVICE BISMARCK ND
200 PM CDT MON SEP 25 2017

NOTE: "FAIR" INDICATES FEW OR NO CLOUDS BELOW 12,000 FEET WITH NO
SIGNIFICANT WEATHER AND/OR OBSTRUCTIONS TO VISIBILITY.


CITY           SKY/WX    TMP DP  RH WIND       PRES   REMARKS
WILLISTON      CLOUDY    52  42  69 CALM      30.15S
MINOT          CLOUDY    54  42  64 CALM      30.15S
MINOT AFB      CLOUDY    52  43  71 E6        30.14F
BISMARCK       CLOUDY    53  43  68 N7        30.14F
DICKINSON      LGT RAIN  46  42  86 SW3       30.13F FOG
GARRISON         N/A     51  43  74 CALM      30.14F
HETTINGER ARPT CLOUDY    45  39  79 SE3       30.15F
JAMESTOWN      CLOUDY    50  43  77 N8        30.13S
CARRINGTON     CLOUDY    50  43  76 N9        30.16F
LINTON         CLOUDY    52  41  66 NE6       30.15F
TIOGA          CLOUDY    52  43  71 VRB7      30.15S
$$

CITY           SKY/WX    TMP DP  RH WIND       PRES   REMARKS
GRAND FORKS    CLOUDY    53  47  79 N14       30.12F
GRAND FORKS AF CLOUDY    52  44  76 N12       30.13F
DEVILS LAKE    CLOUDY    50  42  74 NE10      30.16S
FARGO          CLOUDY    52  47  83 N12       30.10S
CANDO          CLOUDY    54  43  66 NE8       30.18R
CAVALIER       CLOUDY    54  43  66 N10G16    30.14S
GWINNER        CLOUDY    52  46  82 N9        30.11S
ROLLA          MOCLDY    52  41  66 N8        30.17R
WALHALLA       FAIR     N/A N/A N/A N16G23    30.15S
$$

CITY           SKY/WX    TMP DP  RH WIND       PRES   REMARKS
ABERDEEN       CLOUDY    54  46  74 N12       30.10F
MOBRIDGE       CLOUDY    54  44  69 NE7       30.11F
BUFFALO          N/A     48  40  73 NE6       30.07F
RAPID CITY     CLOUDY    50  43  76 S8        30.11F
GLASGOW        CLOUDY    57  35  43 SE14      30.08F
SIDNEY           N/A    N/A N/A N/A MISG        N/A
WOLF POINT     MOSUNNY   55  37  50 VRB5      30.12F
GLENDIVE       LGT RAIN  46  41  82 S8        30.14F
MILES CITY     LGT RAIN  46  43  89 SE10      30.13S
BAKER          CLOUDY    44  38  79 S5        30.15S
$$

CITY           SKY/WX    TMP DP  RH WIND       PRES   REMARKS
BILLINGS       CLOUDY    53  37  54 VRB3      30.06F
GREAT FALLS    MOSUNNY   59  34  39 S7        30.02F
REGINA         CLOUDY    59  28  31 S13G20    30.12S
ESTEVAN        CLOUDY    54  39  58 E3        30.15F
$$





USA.gov is the U.S. government's official web portal to all federal, state and local government web resources and services.